Probability
9 11 14 14 14 14 13 12 10 9 12 13 11 9 7 5 3 3 4 4 3 1 2 3 2 1 1 1 1 1 1 1 0 0 0 0 0 0 0 0 0 0 0
9 10 12 13 13 13 12 11 9 10 13 13 10 7 4 3 3 3 5 5 3 2 2 3 3 2 2 2 3 3 3 3 1 0 0 0 0 0 0 0 0 0 0
8 10 11 12 12 12 11 10 9 10 15 16 12 7 4 3 4 4 6 6 4 3 3 3 3 3 4 5 5 6 6 5 3 1 0 0 0 0 0 0 0 0 0
6 9 11 12 12 11 10 10 10 11 15 17 16 13 9 6 5 6 7 7 6 6 5 5 4 4 5 6 6 6 6 5 4 2 2 2 1 0 0 0 0 0 0
7 9 11 12 12 11 9 10 12 12 13 15 18 17 13 9 6 6 8 8 7 8 8 6 5 4 4 5 4 4 4 4 3 3 3 3 2 1 0 0 0 0 0
9 11 13 13 14 12 10 10 12 12 12 14 17 17 14 10 7 6 7 7 7 8 8 7 5 3 3 3 3 3 3 3 3 3 3 3 3 2 1 1 0 0 0
10 11 12 13 14 14 12 12 12 12 12 15 17 17 15 12 9 7 6 7 6 6 6 6 5 4 3 4 4 3 3 3 3 3 3 3 3 3 3 2 2 1 1
8 10 11 12 13 13 14 15 13 11 11 14 17 18 17 13 10 8 7 7 6 5 5 6 6 6 6 6 5 4 3 3 3 3 3 3 3 3 3 3 2 2 1
8 10 12 11 11 11 13 14 12 10 11 13 16 19 18 14 10 8 8 7 6 5 5 5 6 6 6 6 6 4 3 3 3 3 3 3 3 3 3 3 1 1 0
8 10 11 11 10 10 10 11 10 10 11 14 17 18 16 13 10 8 8 8 6 6 6 5 6 6 6 5 5 4 4 4 3 3 3 3 3 2 2 2 1 0 0
6 7 9 9 9 10 9 9 9 10 11 14 16 15 13 11 9 7 8 8 7 6 6 6 7 7 7 6 5 5 6 5 4 3 2 2 1 1 1 1 0 0 0
6 6 7 8 8 9 9 9 9 10 11 12 13 13 11 10 8 7 7 7 5 4 4 5 7 8 8 8 7 6 6 5 3 1 1 1 0 0 0 0 0 0 0
7 6 6 6 7 7 9 9 10 10 10 11 12 14 13 11 9 7 6 4 4 3 3 3 5 7 7 8 8 6 5 4 2 1 1 1 0 0 0 0 0 0 0
9 7 6 6 6 7 8 10 11 10 10 10 12 15 15 13 10 9 6 4 4 4 2 1 2 4 5 5 6 5 5 4 3 2 2 2 1 1 1 1 0 0 0
12 10 8 7 7 8 9 11 12 12 11 10 12 14 14 12 11 9 8 6 5 4 2 0 1 1 1 2 2 3 4 5 4 3 3 3 2 2 2 2 0 0 1
14 13 11 9 9 10 10 11 13 13 13 12 13 13 12 10 10 10 9 6 4 3 1 0 0 0 0 0 0 1 2 5 5 4 4 3 2 2 2 1 0 0 1
12 13 13 11 10 9 10 11 12 13 14 13 11 10 9 9 9 9 7 5 3 3 2 1 0 0 0 0 0 0 1 4 6 6 5 3 1 1 1 0 0 0 1
10 11 12 11 9 7 8 10 11 13 14 12 10 7 7 9 9 7 5 4 4 4 4 3 2 1 2 1 0 0 1 4 5 5 4 2 1 0 0 0 0 0 0
10 10 11 11 8 6 7 8 8 10 11 10 8 6 7 8 8 6 4 4 5 6 6 5 4 3 3 2 1 1 2 3 4 4 3 1 0 0 0 0 0 0 0
9 9 11 11 9 7 7 5 4 5 6 6 6 5 6 7 7 6 5 5 5 6 6 6 6 4 3 3 2 1 2 3 3 3 3 1 0 0 0 0 0 0 0
7 8 10 11 9 9 8 5 2 1 2 3 4 4 4 5 6 5 5 4 4 4 4 5 6 5 4 3 2 1 2 3 3 3 3 2 1 0 0 0 0 0 0
5 6 7 8 8 8 8 6 3 1 1 3 3 3 3 4 4 4 4 3 3 3 4 5 6 6 4 3 2 1 1 2 3 3 3 2 1 0 0 0 0 0 0
3 3 4 5 5 5 6 5 4 3 3 3 3 3 3 3 3 3 3 3 3 3 4 5 6 6 4 3 3 1 0 1 2 2 2 1 0 0 0 0 0 0 0
2 3 4 4 4 4 5 5 5 5 4 3 3 3 4 3 3 3 3 3 3 3 3 4 4 5 4 3 2 1 0 0 1 1 1 0 0 0 0 0 0 0 0
2 4 5 5 5 5 6 6 6 5 4 3 3 4 4 4 3 3 3 3 3 3 3 3 3 4 3 1 1 1 0 0 0 0 0 0 0 0 0 0 0 0 0
3 5 6 6 6 6 6 6 6 6 4 3 3 4 4 4 3 3 3 3 3 3 3 3 3 3 1 0 0 0 0 0 0 0 0 0 0 0 0 0 0 0 0
Wind_Speed
3 2 3 4 4 4 4 5 4 4 4 3 2 1 1 1 0 0 1 1 1 1 1 1 2 2 2 2 2 2 2 2 2 2 2 3 3 2 2 2 2 2 2
2 3 3 3 4 4 4 4 4 4 4 3 3 2 1 1 1 0 1 1 1 1 2 2 2 2 2 3 2 2 2 2 2 1 1 2 3 3 3 2 2 2 2
6 5 5 4 4 4 5 4 4 5 4 4 3 2 2 1 1 1 0 0 0 1 2 2 2 2 2 2 1 1 2 1 2 2 2 1 0 2 3 3 2 2 2
5 5 5 5 5 5 4 3 4 4 4 4 4 5 3 2 2 1 0 1 1 1 2 2 2 2 2 2 1 2 2 2 1 1 1 1 2 1 1 2 2 3 2
6 5 6 6 5 5 5 4 4 3 4 4 5 5 3 2 1 1 1 1 1 1 2 2 2 2 2 2 2 2 2 2 1 1 0 1 1 1 1 1 2 2 2
5 4 4 4 4 4 4 4 4 3 4 4 4 4 4 3 2 1 1 1 1 1 1 2 2 2 2 2 2 2 2 2 2 1 1 1 1 0 1 1 1 1 2
5 5 5 5 5 5 5 5 5 3 3 4 4 4 4 3 3 2 2 1 0 0 0 1 2 2 2 2 2 2 2 2 2 1 0 0 1 1 1 1 1 1 1
4 5 6 6 5 5 5 6 6 4 3 4 3 3 3 2 2 2 2 2 1 1 1 1 2 2 2 2 2 2 1 1 1 1 0 0 0 1 1 1 1 0 1
4 5 5 6 6 6 5 6 6 5 4 4 3 2 2 2 2 2 2 2 1 1 1 1 1 1 2 2 2 2 1 1 1 0 0 0 1 1 1 1 2 2 1
3 4 5 5 5 4 4 4 5 5 4 4 3 3 2 2 2 2 2 2 1 1 2 1 1 1 2 2 2 2 1 1 0 0 0 0 1 0 0 1 1 1 2
4 4 4 4 4 4 4 4 4 4 4 3 3 3 2 2 2 2 2 2 1 1 1 1 1 1 1 2 2 1 1 1 0 0 0 0 0 0 0 0 0 1 1
3 3 4 4 4 4 4 4 3 4 4 4 3 3 2 2 2 1 1 2 2 1 1 2 2 2 2 2 2 2 1 1 1 1 0 1 0 0 1 0 0 0 1
3 3 4 4 4 4 4 4 3 3 3 4 4 3 2 2 2 1 1 2 2 1 1 2 2 2 2 2 2 2 2 2 1 1 1 1 0 0 0 0 0 0 0
4 4 4 4 4 4 4 4 3 3 3 4 4 3 3 2 2 2 1 2 2 2 2 2 2 2 2 2 2 2 2 1 1 1 1 2 2 2 1 1 1 1 0
3 3 4 4 4 4 3 4 3 2 3 4 3 3 2 2 2 2 1 1 1 2 2 2 1 1 1 1 2 2 2 2 1 1 1 2 2 2 2 1 2 2 1
4 3 3 4 4 4 4 3 3 3 3 4 3 2 2 2 2 2 1 1 1 1 1 1 1 1 1 1 2 2 2 2 2 1 1 2 2 2 2 2 2 3 3
4 4 4 5 5 5 5 4 3 2 3 2 2 2 2 2 2 2 1 1 1 1 1 1 1 1 1 1 2 2 2 2 2 2 1 1 1 2 1 2 2 2 3
4 3 3 3 3 3 3 4 3 3 3 2 2 1 2 2 2 2 2 1 1 1 1 1 1 1 1 2 2 2 2 1 1 1 2 2 2 1 1 1 1 2 2
3 3 4 4 4 4 4 4 4 3 3 2 2 2 2 3 2 2 2 2 1 1 1 2 2 1 2 2 2 2 1 1 1 1 1 1 2 2 1 1 1 2 3
2 2 2 3 3 3 4 4 3 3 2 2 3 3 3 3 3 3 2 2 2 2 2 1 2 2 2 2 2 2 1 1 1 1 1 2 2 2 1 2 2 2 3
1 2 3 3 3 4 4 4 3 3 3 1 1 1 2 3 3 2 2 2 2 2 1 2 1 2 2 3 3 3 2 3 2 2 2 2 3 3 2 2 3 4 3
2 3 3 3 2 4 5 4 3 2 1 1 1 1 1 1 1 2 1 2 2 1 1 1 1 2 2 3 3 4 4 4 3 3 3 3 3 3 3 2 2 3 2
2 2 3 3 2 3 4 4 3 2 2 2 1 1 0 0 1 1 2 1 1 1 2 2 2 2 2 2 4 4 4 4 3 3 3 3 3 3 2 2 2 2 1
2 2 3 3 2 2 2 2 2 2 2 2 1 0 1 0 0 1 1 2 2 2 2 2 2 2 2 2 2 2 2 2 2 2 2 2 1 1 1 1 1 1 2
1 2 3 3 2 2 1 1 1 2 2 1 1 0 0 0 0 0 1 2 2 3 3 3 2 2 3 4 4 2 2 2 2 1 0 0 0 1 1 1 1 1 1
1 2 2 2 2 2 1 1 1 2 3 2 1 1 1 1 0 0 1 2 1 1 3 3 3 3 4 3 3 3 3 3 3 2 1 1 2 2 2 2 2 1 2
Wind_Direction
208 162 161 150 149 155 163 172 170 170 153 142 146 156 212 231 225 193 150 151 149 132 116 91 75 80 87 87 84 77 55 33 19 46 26 14 24 30 26 29 39 37 30
188 175 168 158 160 168 173 172 177 178 170 163 157 153 165 227 191 322 59 82 116 122 127 106 93 88 90 75 67 80 86 46 36 65 58 10 358 360 13 22 32 24 22
197 192 186 187 174 174 179 181 179 177 171 155 126 104 82 30 28 13 3 347 120 112 114 113 107 97 100 98 89 93 103 96 42 57 105 116 281 330 348 9 18 15 16
196 192 185 186 187 184 170 169 173 173 164 153 150 149 162 185 215 221 252 15 60 91 107 105 108 101 98 102 99 92 100 110 82 41 51 109 161 167 331 347 3 9 12
188 188 187 186 183 172 165 168 164 162 157 162 172 161 163 184 162 104 83 58 40 64 91 102 105 104 102 103 94 91 90 103 115 108 91 68 56 92 165 307 337 356 1
187 178 161 156 167 159 156 152 153 157 161 165 166 160 164 163 139 115 104 68 23 38 73 106 105 109 109 109 107 101 90 84 92 92 97 124 137 180 165 210 293 321 327
172 161 158 162 167 163 163 155 149 155 167 165 169 173 172 168 176 178 165 155 119 22 35 113 119 124 131 124 114 99 89 90 94 100 118 156 203 182 172 172 220 306 326
170 173 175 173 172 169 167 163 154 153 163 165 171 171 162 165 178 179 165 175 189 206 178 135 133 138 137 132 123 112 112 100 117 111 156 177 246 195 191 187 177 216 335
177 180 177 173 169 168 170 170 158 153 161 165 158 147 149 157 165 167 157 163 180 173 135 131 131 140 137 132 126 110 115 112 117 114 118 295 289 250 231 203 194 183 214
180 179 173 173 172 167 159 148 151 158 157 150 153 151 153 148 150 145 144 144 150 147 132 122 136 150 145 139 128 125 131 119 105 140 99 0 314 304 259 214 207 197 191
194 178 172 164 148 137 139 146 147 147 147 151 147 141 149 138 129 137 150 143 133 131 142 158 163 164 156 140 134 152 145 133 102 337 111 327 328 360 348 44 117 163 182
179 159 152 141 139 140 140 145 152 152 157 151 144 149 145 136 128 141 157 145 151 153 131 148 168 177 163 150 150 170 163 164 196 249 117 304 346 29 19 68 97 173 193
153 144 146 147 153 153 147 145 154 158 150 145 144 140 141 141 158 177 168 154 161 146 137 139 152 167 165 163 170 181 186 193 206 209 197 240 177 253 46 102 109 147 131
164 158 163 161 163 164 155 147 151 155 152 152 149 153 168 189 194 183 171 167 162 148 142 137 154 168 167 168 183 190 195 209 227 219 202 207 198 212 214 202 219 187 134
168 172 172 171 169 163 156 152 152 157 158 155 158 176 182 172 169 164 166 162 149 135 131 125 132 156 163 179 184 195 199 213 236 234 224 216 208 210 205 202 211 198 192
190 183 173 172 177 174 172 167 162 164 160 166 168 162 154 163 178 178 160 149 143 126 119 134 149 165 213 192 188 186 195 213 222 235 260 261 257 257 235 230 217 204 208
196 189 186 186 187 182 172 177 172 151 146 155 160 162 164 174 192 184 150 171 173 167 169 184 181 202 236 209 203 189 183 200 216 221 245 275 289 264 250 262 265 249 241
187 189 195 191 190 177 163 155 142 145 148 155 172 177 179 187 194 174 176 193 188 189 202 207 225 229 260 240 207 173 163 181 222 228 227 243 281 271 227 240 279 285 278
191 193 196 188 175 166 158 137 136 147 156 177 195 201 194 194 195 199 207 204 191 212 219 210 211 220 264 244 214 177 151 172 256 262 258 259 276 300 235 188 246 286 294
184 174 157 142 155 163 140 131 144 154 188 215 218 204 192 192 200 208 211 210 195 215 214 219 224 224 248 248 228 204 178 201 252 276 280 282 278 290 252 208 221 256 280
152 142 142 153 171 154 138 145 158 192 214 201 190 194 194 195 192 195 192 188 189 192 210 223 246 242 243 246 229 208 195 207 228 248 263 274 279 269 254 219 219 235 250
140 138 138 149 155 149 146 158 189 215 185 146 145 173 213 192 155 158 161 168 172 182 223 234 265 269 256 240 237 222 214 207 212 239 252 266 270 262 251 228 229 227 224
148 137 136 137 139 152 154 172 207 182 151 142 163 183 152 99 135 162 165 165 180 199 235 232 243 264 265 248 240 237 228 220 219 238 250 261 267 258 247 245 237 219 222
118 113 120 135 165 164 161 181 187 149 148 159 187 199 167 175 103 154 173 179 199 214 233 242 249 260 265 263 256 245 238 231 232 247 264 270 278 249 277 296 268 232 223
105 123 140 162 184 170 158 156 156 148 149 150 146 177 229 214 300 306 241 212 217 207 213 232 230 240 259 259 242 224 228 222 216 193 183 15 328 300 294 283 282 269 238
135 132 138 151 163 155 156 146 150 158 156 164 189 205 221 234 250 292 341 355 257 235 229 228 219 243 251 264 253 233 226 218 187 159 193 226 237 244 255 263 269 266 259